SL-16 DEB

Satellite information

Favourite Embed

Satellite Type and Status

DEBRISIN ORBIT

Key statistics

Satellite SL-16 DEB at a glance.

Uptime

9445

Days in orbit

Revolutions

≈ 13.7

Per day

Orbit

LEO

Low Earth Orbit

Inclination

71.1

Latest

Satellite identification and parameters

Extended collection of information and parameters for SL-16 DEB.

Object identification

Identified? True

Debris? True

Object name: SL-16 DEB

International designator: 2000-006C

Object number (NORAD): 26073

Object ID (CCSDS): 26073

Country: COMMONWEALTH OF INDEPENDENT STATES (CIS)

Current information (Y/N): Y

RCS size: SMALL

Orbital parameters

Period: 104.753 minutes

Inclination: 71.0773 deg

SMA: 7361.036 km

Apoapsis: 1126.813 km

Periapsis: 838.988 km

RAAN: 233.839 deg

Eccentricy: 0.01955057

Argument of periapsis: 221.9338 deg

Mean anomaly: 213.4833 deg

Mean motion: 13.74657119 rev/day

Mean motion (dot): 0.00000055 rev/day2

B* drag term: 0.000089897456 1/REarth

Two-line elements (TLE)

Creation date: Dec. 12, 2025, 10:14 a.m.

Reference frame: TEME

Reference center: EARTH

Epoch: Dec. 12, 2025, 3:32 a.m. UTC

TLE line 0: 0 SL-16 DEB

TLE line 1: 1 26073U 00006C 25346.14751253 .00000055 00000-0 89897-4 0 9997

TLE line 2: 2 26073 71.0773 233.8390 0195506 221.9338 213.4833 13.74657119296743

Live tracking on map

Real-time ground track for satellite SL-16 DEB.

In-orbit conjunctions

A list of the most updated potential collisions computed for object SL-16 DEB.

Target Orbit TCA Probability of collision Miss distance Type
METEOR 2-8 LEO 2025-04-18 14:23:01 0.0007526098 268.0 (m) PAYLOAD
FENGYUN 1C DEB SSO 2024-10-02 16:31:55 0.0002245592 115.0 (m) DEBRIS

Associated space launch

Second generation ELING satellite

SL-16 DEB was lifted into orbit during the mission ‘Zenit-2 | Tselina-2 21’, on board a Zenit-2 space rocket.

The launch took place on Feb. 3, 2000, 9:26 a.m. from 45/1.

For more information about the launch, click the button.

Launch to space Zenit-2 | Tselina-2 21
Zenit-2 | Tselina-2 21

Agency: N/A

Status: Launch Successful

Launch date: Feb. 3, 2000, 9:26 a.m. UTC

Rocket: Zenit-2

Launch pad: 45/1

Location: Baikonur Cosmodrome, Republic of Kazakhstan

...

Latest news about this satellite

There are no fresh news available about this satellite. Check back as we update our databases every day.


Newsletter sign-up

Weekly statistics, charts and insights to help you stay on top of the space industry.